Hourly Weather Roundup
Issued by NWS Central Illinois

Home | Current Version | Previous Version | Text Only | Print | Product List | Glossary On
Versions: 1 2 3 4 5 6 7 8 9 10 11 12 13 14 15 16 17 18 19 20 21 22 23 24 25 26 27 28 29 30 31 32 33 34 35 36 37 38 39 40 41 42 43 44 45 46 47 48 49 50
000
NZUS43 KILX 041110
HWRILX

AREA WEATHER ROUNDUP
NATIONAL WEATHER SERVICE, LINCOLN IL
600 AM CDT SAT JUL 04 2015


CITY           SKY/WX    TMP DP  RH WIND       PRES   REMARKS
BLOOMINGTON    CLEAR     62  59  90 CALM      30.00R
CHAMPAIGN      CLEAR     59  57  93 CALM      29.98R FOG
DANVILLE         N/A     55  55  99 CALM      29.95R FOG
DECATUR        CLEAR     58  55  90 CALM      29.98R
EFFINGHAM        N/A     62  59  92 CALM      29.98R FOG
FLORA            N/A     63  63  99 N3        29.97R FOG
GALESBURG      CLEAR     55  54  98 CALM      29.98S FOG
JACKSONVILLE   CLEAR     62  61  96 CALM      29.97R FOG
LACON          CLEAR     57  56  95 CALM      29.98R FOG
LAWRENCEVILLE  CLEAR     64  63  96 NE5       29.95R FOG
LITCHFIELD     FOG       58  57  96 CALM      29.98R VSB 3/4
$$


CITY           SKY/WX    TMP DP  RH WIND       PRES   REMARKS
LINCOLN        CLEAR     59  57  94 CALM      29.99R FOG
MACOMB         CLEAR     55  55 100 CALM      29.99S FOG
MATTOON        CLEAR     60  59  96 CALM      29.97R FOG
MT CARMEL AP   CLEAR     64  63  94 CALM      29.95R FOG
OLNEY-NOBLE AP CLEAR     63  63 100 CALM      29.96R FOG
PARIS            N/A     58  58  99 CALM      29.98R FOG
PEORIA         CLEAR     61  57  87 CALM      29.98R FOG
PONTIAC        CLEAR     57  57 100 CALM      29.98S FOG
RANTOUL        CLEAR     60  58  94 CALM      29.98R FOG
ROBINSON       CLEAR     62  61  97 CALM      29.96S FOG
SPRINGFIELD    CLEAR     61  59  93 CALM      29.98R FOG
TAYLORVILLE    FOG       57  57 100 CALM      29.98R VSB 3/4
$$

...REGIONAL REPORTS...


CITY           SKY/WX    TMP DP  RH WIND       PRES   REMARKS
CHICAGO O`HARE PTCLDY    60  55  83 W6        29.97R
KANKAKEE       CLEAR     57  57  98 CALM      29.99R FOG
MOLINE         CLEAR     56  53  90 CALM      29.98R FOG
MOUNT STERLING NOT AVBL
MOUNT VERNON     N/A     63  57  82 CALM      29.97R VSB 1/2
PITTSFIELD     CLEAR     62  60  93 CALM      29.98R FOG
QUINCY         CLEAR     62  59  90 NE3       29.97R FOG
ROCKFORD       CLEAR     58  55  90 CALM      29.99R FOG
$$


CITY           SKY/WX    TMP DP  RH WIND       PRES   REMARKS
BURLINGTON     CLEAR     58  57  97 CALM      29.97S FOG
CEDAR RAPIDS   CLEAR     55  55 100 CALM      29.98R
DES MOINES     PTCLDY    61  55  81 CALM      29.99R
KIRKSVILLE     FOG       56  54  93 CALM      30.00R VSB 1
OTTUMWA        CLEAR     56  56 100 NW3       29.97S
ST LOUIS       CLEAR     70  64  83 CALM      29.97R HAZE
$$


CITY           SKY/WX    TMP DP  RH WIND       PRES   REMARKS
TERRE HAUTE    CLEAR     62  60  93 CALM      29.97R FOG
EVANSVILLE     CLEAR     66  65  96 N5        29.95R FOG
INDIANAPOLIS   PTCLDY    63  59  87 N5        29.95R
LAFAYETTE      CLEAR     56  55  97 CALM      29.97R FOG
MADISON        CLEAR     56  54  93 CALM      29.97R
MILWAUKEE      PTCLDY    62  55  77 W3        29.97R
$$




USA.gov is the U.S. government's official web portal to all federal, state and local government web resources and services.